Wind_Speed
20 20 20 20 20 19 19 19 17 10 12 17 14 27 41 36 33 33 38 42 40 38 31 32 32 34 36 40 47 48 46 47 43 42 43 43 43 45
20 21 21 20 21 19 18 20 19 18 9 23 28 29 29 32 32 32 32 31 26 16 22 28 33 34 34 36 39 42 49 51 47 45 44 43 44 45
22 22 22 22 22 22 21 20 22 19 15 25 26 27 26 27 30 30 27 25 26 26 30 32 30 28 31 33 33 37 43 48 48 44 48 45 44 46
22 22 22 22 22 21 23 25 24 24 25 24 27 26 26 26 26 28 28 27 27 28 31 28 32 28 32 30 32 33 35 39 44 41 43 44 39 37
23 24 24 23 23 23 25 24 25 26 26 27 27 27 26 24 26 26 26 28 28 29 32 28 25 30 31 31 31 31 33 31 34 39 41 40 37 29
23 23 24 24 25 28 23 26 25 26 27 27 27 26 25 26 24 23 25 28 31 33 34 24 19 28 29 27 26 27 30 30 31 31 32 27 24 26
25 24 24 24 26 19 24 22 24 26 28 28 26 26 24 24 23 24 26 30 34 29 24 25 28 31 22 23 22 22 22 22 19 20 22 16 6 10
26 26 26 25 24 28 24 25 26 27 28 26 27 25 29 25 24 24 27 26 13 21 26 35 27 30 21 17 16 16 16 14 13 18 22 24 30 33
25 27 28 27 27 27 28 28 28 29 28 29 29 28 30 29 27 26 26 26 27 30 30 33 26 29 19 11 12 11 11 11 11 10 9 10 12 15
26 27 28 28 29 30 30 30 30 32 29 29 29 33 33 33 32 32 32 31 29 26 23 19 26 17 15 10 6 5 6 8 9 10 13 15 18 18
27 27 30 30 30 31 31 31 34 33 29 28 29 33 36 38 36 34 26 22 17 20 27 23 15 15 10 6 3 4 5 6 7 6 9 13 18 21
30 31 31 31 32 34 34 35 33 31 31 32 34 32 30 27 26 25 25 20 18 13 8 16 18 10 4 3 2 4 5 6 8 9 9 13 16 19
32 32 31 33 35 41 40 35 33 37 35 33 29 26 26 26 26 27 24 23 21 21 24 19 12 19 7 5 3 5 4 3 8 12 12 10 11 15
33 33 33 37 42 40 38 34 33 34 30 27 25 23 23 24 25 27 26 24 27 30 30 25 13 12 8 3 1 2 6 7 13 15 15 13 12 12
32 34 38 38 36 32 29 30 29 24 23 22 22 23 24 23 24 24 22 22 25 21 22 25 25 23 17 11 4 5 2 10 14 17 15 15 15 14
32 34 35 34 29 28 27 24 23 23 24 24 23 25 24 21 21 19 19 19 18 18 20 13 17 17 15 12 8 9 11 3 14 18 20 18 17 16
38 31 27 25 26 27 27 26 24 23 22 23 23 23 22 20 19 18 18 17 16 14 11 5 6 3 3 7 9 12 12 15 18 20 22 23 22 21
31 25 25 25 25 26 27 27 26 24 21 21 22 22 20 19 18 18 17 17 16 14 6 3 6 9 11 17 13 14 15 17 20 21 21 22 21 20
22 23 25 26 26 27 27 27 27 26 25 22 21 21 19 18 18 15 17 16 14 11 1 5 6 1 6 7 12 14 16 19 21 21 21 20 20 18
24 25 26 27 28 28 28 28 27 27 25 22 21 21 19 18 16 16 16 16 12 4 3 4 2 11 9 6 7 17 16 19 22 23 24 30 28 24
26 26 27 28 29 29 29 29 29 27 26 24 21 19 19 18 16 18 16 15 8 3 9 11 14 21 28 24 16 23 27 21 22 22 17 15 16 16
27 28 29 29 29 30 30 31 29 28 25 22 19 18 17 17 17 16 14 5 12 12 13 17 19 22 18 21 19 21 23 28 25 22 16 10 5 5
28 29 30 30 30 31 31 31 30 28 25 22 18 16 17 19 15 9 5 10 11 12 14 15 20 22 20 20 21 21 23 23 25 30 33 25 26 29
Wind_Direction
344 344 340 334 336 328 341 346 330 319 317 324 337 321 319 328 327 324 317 319 315 316 316 305 315 313 301 294 293 294 289 289 292 291 283 280 276 276
343 340 339 336 330 329 328 324 318 322 309 319 312 315 316 317 321 325 325 325 325 316 324 319 317 319 320 304 297 288 290 288 285 285 287 281 278 278
340 338 335 335 332 326 324 320 315 309 300 304 306 309 310 315 317 320 322 326 324 322 324 317 323 321 320 321 319 309 297 292 286 284 283 280 278 272
334 333 329 330 328 326 330 320 316 315 308 310 314 312 310 316 315 318 316 313 316 315 310 320 315 318 325 324 321 321 309 301 289 285 283 277 275 278
332 329 327 327 326 330 323 317 319 313 318 309 310 309 310 315 310 312 313 316 315 315 316 308 305 319 323 324 327 328 325 314 309 292 280 277 269 274
327 326 324 325 328 324 325 322 322 322 317 313 310 313 315 316 317 323 323 319 317 316 312 310 316 325 317 323 332 334 336 336 329 313 294 279 271 276
324 323 322 324 327 334 329 323 324 320 315 312 309 310 311 316 325 322 315 313 309 311 306 317 320 316 305 320 330 334 339 352 349 335 328 307 279 223
321 321 320 320 322 325 319 317 315 311 304 303 302 304 306 308 314 316 313 308 305 311 324 307 307 305 291 311 326 336 343 347 25 51 76 95 106 113
319 319 318 316 316 315 313 312 311 309 299 291 288 290 298 303 304 303 300 295 293 299 304 296 299 290 279 302 321 336 350 5 24 50 67 84 99 110
319 318 315 313 313 311 309 308 307 308 302 294 289 290 291 295 294 293 293 291 290 295 298 287 301 279 294 288 301 332 10 34 51 73 92 99 110 111
315 314 312 311 310 313 314 307 307 305 304 299 297 296 294 293 293 289 281 279 290 300 301 285 292 292 276 267 299 341 1 25 61 80 100 109 109 110
315 314 313 312 313 315 313 309 306 304 306 304 301 300 301 297 293 289 286 279 284 299 314 330 319 314 289 267 352 11 37 55 72 86 100 114 119 109
312 312 312 313 313 312 313 305 298 302 300 299 298 296 295 294 297 301 292 285 282 278 282 287 285 306 275 307 327 13 25 70 97 107 104 103 110 112
310 310 310 311 312 312 310 304 306 306 298 294 295 295 295 296 298 303 298 293 292 278 289 288 268 264 273 289 257 45 60 105 119 110 103 100 94 89
310 309 311 311 311 309 307 308 310 303 299 300 300 300 300 297 299 296 295 295 296 284 293 291 271 266 255 252 189 156 125 103 119 114 104 100 96 94
318 315 311 311 314 315 315 314 310 307 305 300 299 300 301 302 300 300 298 301 304 305 310 286 289 269 251 235 185 145 146 144 126 114 110 101 98 97
320 313 312 318 318 318 318 316 314 309 305 305 303 303 305 305 303 308 307 305 301 298 299 339 38 138 157 134 114 126 121 121 123 113 100 88 87 94
316 311 318 317 316 317 316 313 312 312 309 308 305 304 304 306 307 309 306 309 296 299 279 158 121 88 76 71 98 120 120 119 117 109 101 96 83 78
321 319 318 317 316 315 315 314 313 313 313 307 304 305 307 306 308 308 309 304 297 308 284 173 195 236 99 87 70 102 114 114 110 97 92 85 84 78
326 324 321 319 318 317 318 318 317 316 314 310 307 306 308 309 307 308 306 305 310 321 104 137 105 120 121 104 99 82 111 104 102 97 98 98 92 83
325 323 321 321 321 322 322 320 319 316 315 312 308 309 314 314 311 310 307 316 320 67 87 75 101 125 115 108 93 78 84 103 109 113 121 109 101 89
323 324 324 325 324 324 325 324 323 322 320 318 316 318 321 322 312 310 319 359 78 85 97 114 116 117 112 104 101 99 91 84 87 86 89 111 158 104
324 325 326 326 326 325 326 325 323 320 319 321 325 327 326 319 326 331 101 94 99 106 111 104 104 105 105 105 105 101 91 83 82 76 74 91 103 104
Height
815 811 808 803 800 796 793 790 785 772 765 763 760 753 747 742 741 737 730 725 722 722 720 715 715 713 711 707 704 699 692 690 687 684 684 683 681 679
817 813 810 805 801 796 795 790 786 781 771 768 761 755 751 745 740 736 731 727 724 720 717 714 710 708 703 701 695 690 684 679 676 673 671 671 670 668
818 814 809 806 801 797 792 788 783 779 772 764 760 755 750 745 740 735 730 726 721 717 712 708 706 705 701 695 689 680 674 671 666 660 661 658 656 655
817 813 810 805 802 797 794 789 783 779 771 760 758 753 748 743 739 735 730 725 720 716 710 707 703 701 694 686 680 672 667 661 655 649 648 646 643 641
816 812 808 804 800 796 794 788 784 777 772 764 756 752 745 740 735 732 729 724 719 713 707 703 699 695 688 682 675 666 660 651 647 640 636 635 632 630
814 810 806 802 799 795 792 788 782 779 773 766 756 750 744 738 734 729 723 721 715 710 703 698 695 690 685 679 672 665 657 646 639 634 628 620 620 624
811 807 803 801 799 795 792 787 784 779 773 766 757 750 744 738 736 732 726 720 713 709 699 694 691 687 681 676 670 665 659 650 640 631 623 615 611 624
808 804 801 798 794 791 789 786 784 779 773 767 759 752 745 742 737 733 728 721 710 707 700 692 691 684 679 675 671 665 659 654 644 633 628 626 620 623
807 803 799 795 792 788 784 781 778 775 770 764 756 751 743 740 736 730 726 720 712 707 704 689 688 681 675 672 670 665 659 654 648 640 636 635 635 636
806 802 797 792 788 784 778 774 770 766 762 758 752 745 740 735 732 726 720 713 707 704 701 688 682 675 673 670 669 665 660 655 651 647 643 642 641 644
804 799 794 788 783 780 774 768 762 757 754 749 745 739 733 727 724 718 713 708 700 697 693 687 678 674 669 667 667 665 661 658 653 652 650 648 648 647
800 794 789 784 779 775 770 763 755 750 745 740 736 730 725 719 716 713 708 703 698 692 690 686 681 677 669 667 666 663 661 659 655 655 656 655 654 653
796 788 783 779 774 768 763 758 750 744 739 734 728 723 718 713 709 705 703 699 694 689 687 685 679 677 674 668 666 663 661 660 658 658 659 661 660 659
793 785 778 773 767 760 755 749 744 739 733 727 722 717 712 708 703 699 695 692 688 683 680 679 675 673 670 667 665 665 664 663 661 661 661 663 666 665
790 781 774 766 760 754 749 744 738 733 728 723 717 712 708 703 698 694 689 686 682 677 675 671 669 667 666 665 664 665 667 666 665 664 666 667 669 670
784 776 768 761 755 750 744 739 734 729 724 719 713 707 703 698 694 690 685 681 677 673 670 667 664 661 661 660 661 664 667 668 669 669 670 673 673 675
779 771 764 758 752 746 740 734 729 724 719 714 708 703 698 694 690 686 682 678 675 670 667 665 663 660 660 661 663 665 666 671 672 674 674 677 680 684
776 769 762 756 750 743 737 730 725 719 714 710 705 700 695 691 687 683 680 677 672 667 665 665 665 664 665 666 667 669 671 674 677 679 682 683 687 691
774 767 761 754 748 741 734 728 721 716 710 705 701 696 692 688 685 681 677 673 669 666 665 665 665 665 667 670 674 675 676 679 681 684 687 689 692 696
772 766 759 752 745 738 731 724 718 712 706 701 697 693 689 686 682 679 675 671 667 665 666 666 666 666 669 673 676 680 683 684 686 689 693 696 700 703
770 764 758 750 743 736 729 722 715 709 703 698 694 690 687 684 680 677 673 669 667 666 668 669 669 670 673 677 681 686 690 692 694 696 698 701 704 708
768 762 755 748 741 734 726 719 712 706 700 695 691 688 685 682 679 675 672 670 670 671 673 675 676 677 680 682 687 692 697 698 699 700 702 704 706 709
766 759 753 746 739 732 725 717 710 703 698 694 690 687 684 681 677 674 673 673 674 675 677 678 681 684 687 690 694 698 701 704 706 708 711 711 711 716